When you browse on this site, cookies collect data to enhance your experience and personalize the content and advertising you see.
Visit our Privacy Policy to learn more. By continuing to use the site, you agree to this use of cookies and data.
  • En España
  • Lista de países
  • Para 7 días
  • Temperatura del agua
  • Mapa Satelital
  • El tiempo en el mapa
  • Informadores
  • user-avatar
    Iniciar sesión

    Tiempo cada hora Caipan

    Hoy, 18 Julio, Jueves

    Tiempo Temperatura Precipitaciones Viento Presión Humedad
    00:00 +20°C° 0 mm 1 mps 669 mmHg 78%
    01:00 +20°C° 0 mm 1 mps 669 mmHg 77%
    02:00 +20°C° 0 mm 1 mps 668 mmHg 75%
    03:00 +20°C° 0 mm 1 mps 668 mmHg 74%
    04:00 +20°C° 0 mm 1 mps 668 mmHg 75%
    05:00 +19°C° 0 mm 1 mps 668 mmHg 75%
    06:00 +19°C° 0 mm 1 mps 668 mmHg 76%
    07:00 +21°C° 0.1 mm 1 mps 669 mmHg 74%
    08:00 +22°C° 0.1 mm 1 mps 669 mmHg 71%
    09:00 +24°C° 0.1 mm 1 mps 670 mmHg 69%
    10:00 +25°C° 0.1 mm 2 mps 670 mmHg 66%
    11:00 +26°C° 0.1 mm 3 mps 670 mmHg 62%
    12:00 +27°C° 0.1 mm 3 mps 670 mmHg 59%
    13:00 +27°C° 0.2 mm 3 mps 669 mmHg 60%
    14:00 +27°C° 0.2 mm 4 mps 669 mmHg 61%
    15:00 +27°C° 0.2 mm 4 mps 668 mmHg 62%
    16:00 +27°C° 0 mm 4 mps 668 mmHg 63%
    17:00 +26°C° 0 mm 3 mps 667 mmHg 65%
    18:00 +25°C° 0 mm 3 mps 667 mmHg 67%
    19:00 +24°C° 0 mm 3 mps 667 mmHg 72%
    20:00 +23°C° 0 mm 2 mps 668 mmHg 77%
    21:00 +20°C° 0 mm 2 mps 668 mmHg 82%
    22:00 +20°C° 0 mm 2 mps 668 mmHg 81%
    23:00 +21°C° 0 mm 1 mps 668 mmHg 80%

    Mañana, 19 Julio, Viernes

    Tiempo Temperatura Precipitaciones Viento Presión Humedad
    00:00 +20°C° 0 mm 1 mps 668 mmHg 78%
    01:00 +20°C° 0 mm 1 mps 668 mmHg 77%
    02:00 +19°C° 0 mm 1 mps 667 mmHg 76%
    03:00 +19°C° 0 mm 1 mps 667 mmHg 74%
    04:00 +19°C° 0 mm 1 mps 667 mmHg 73%
    05:00 +19°C° 0 mm 1 mps 667 mmHg 71%
    06:00 +18°C° 0 mm 1 mps 667 mmHg 70%
    07:00 +20°C° 0 mm 1 mps 668 mmHg 65%
    08:00 +23°C° 0 mm 1 mps 668 mmHg 60%
    09:00 +25°C° 0 mm 2 mps 669 mmHg 55%
    10:00 +26°C° 0 mm 2 mps 669 mmHg 52%
    11:00 +28°C° 0 mm 2 mps 669 mmHg 49%
    12:00 +29°C° 0 mm 3 mps 669 mmHg 46%
    13:00 +29°C° 0 mm 3 mps 669 mmHg 44%
    14:00 +30°C° 0 mm 4 mps 668 mmHg 43%
    15:00 +30°C° 0 mm 4 mps 667 mmHg 41%
    16:00 +29°C° 0 mm 4 mps 667 mmHg 44%
    17:00 +28°C° 0 mm 4 mps 667 mmHg 46%
    18:00 +26°C° 0 mm 3 mps 667 mmHg 49%
    19:00 +24°C° 0 mm 3 mps 667 mmHg 58%
    20:00 +21°C° 0 mm 2 mps 667 mmHg 67%
    21:00 +20°C° 0 mm 2 mps 667 mmHg 77%
    22:00 +20°C° 0 mm 1 mps 667 mmHg 79%
    23:00 +20°C° 0 mm 1 mps 667 mmHg 81%

    Pasado mañana, 20 Julio, Sábado

    Tiempo Temperatura Precipitaciones Viento Presión Humedad
    00:00 +19°C° 0 mm 1 mps 667 mmHg 83%
    01:00 +19°C° 0 mm 1 mps 667 mmHg 82%
    02:00 +19°C° 0 mm 1 mps 667 mmHg 80%
    03:00 +17°C° 0 mm 0 mps 666 mmHg 79%
    04:00 +16°C° 0 mm 0 mps 666 mmHg 78%
    05:00 +16°C° 0 mm 0 mps 666 mmHg 78%
    06:00 +16°C° 0 mm 0 mps 666 mmHg 77%
    07:00 +18°C° 0 mm 0 mps 667 mmHg 69%
    08:00 +21°C° 0 mm 0 mps 668 mmHg 61%
    09:00 +23°C° 0 mm 0 mps 669 mmHg 53%
    10:00 +26°C° 0 mm 1 mps 669 mmHg 49%
    11:00 +28°C° 0 mm 1 mps 669 mmHg 46%
    12:00 +29°C° 0 mm 2 mps 669 mmHg 42%
    13:00 +30°C° 0 mm 2 mps 668 mmHg 42%
    14:00 +30°C° 0 mm 2 mps 668 mmHg 43%
    15:00 +31°C° 0 mm 3 mps 667 mmHg 43%
    16:00 +29°C° 0 mm 3 mps 667 mmHg 48%
    17:00 +28°C° 0 mm 3 mps 667 mmHg 54%
    18:00 +27°C° 0 mm 4 mps 666 mmHg 59%
    19:00 +25°C° 0 mm 3 mps 667 mmHg 66%
    20:00 +24°C° 0 mm 2 mps 667 mmHg 74%
    21:00 +22°C° 0 mm 1 mps 667 mmHg 82%
    22:00 +21°C° 0 mm 1 mps 667 mmHg 84%
    23:00 +21°C° 0 mm 1 mps 667 mmHg 86%

    21 Julio, Domingo

    Tiempo Temperatura Precipitaciones Viento Presión Humedad
    00:00 +19°C° 0 mm 0 mps 668 mmHg 89%
    01:00 +18°C° 0 mm 0 mps 667 mmHg 89%
    02:00 +18°C° 0 mm 0 mps 667 mmHg 89%
    03:00 +18°C° 0 mm 0 mps 666 mmHg 90%
    04:00 +18°C° 0 mm 0 mps 666 mmHg 89%
    05:00 +18°C° 0 mm 0 mps 667 mmHg 89%
    06:00 +17°C° 0 mm 0 mps 667 mmHg 89%
    07:00 +20°C° 0 mm 0 mps 667 mmHg 80%
    08:00 +22°C° 0 mm 0 mps 668 mmHg 71%
    09:00 +24°C° 0 mm 0 mps 669 mmHg 62%
    10:00 +28°C° 0.1 mm 1 mps 669 mmHg 58%
    11:00 +29°C° 0.1 mm 1 mps 669 mmHg 53%
    12:00 +31°C° 0.1 mm 1 mps 669 mmHg 49%
    13:00 +30°C° 0.8 mm 2 mps 669 mmHg 54%
    14:00 +30°C° 0.8 mm 3 mps 668 mmHg 58%
    15:00 +29°C° 0.8 mm 4 mps 667 mmHg 63%
    16:00 +28°C° 0.8 mm 3 mps 667 mmHg 67%
    17:00 +27°C° 0.8 mm 3 mps 667 mmHg 70%
    18:00 +26°C° 0.8 mm 2 mps 667 mmHg 74%
    19:00 +25°C° 0.8 mm 2 mps 668 mmHg 79%
    20:00 +24°C° 0.8 mm 2 mps 668 mmHg 84%
    21:00 +22°C° 0.8 mm 1 mps 668 mmHg 88%
    22:00 +22°C° 0.3 mm 1 mps 668 mmHg 89%
    23:00 +22°C° 0.3 mm 1 mps 668 mmHg 89%

    22 Julio, Lunes

    Tiempo Temperatura Precipitaciones Viento Presión Humedad
    00:00 +22°C° 0.3 mm 1 mps 668 mmHg 89%
    01:00 +21°C° 0 mm 1 mps 668 mmHg 89%
    02:00 +21°C° 0 mm 1 mps 668 mmHg 88%
    03:00 +19°C° 0 mm 0 mps 668 mmHg 88%
    04:00 +19°C° 0 mm 0 mps 668 mmHg 88%
    05:00 +18°C° 0 mm 0 mps 667 mmHg 89%
    06:00 +18°C° 0 mm 0 mps 667 mmHg 90%
    07:00 +20°C° 0 mm 0 mps 668 mmHg 82%
    08:00 +22°C° 0 mm 0 mps 669 mmHg 75%
    09:00 +24°C° 0 mm 0 mps 669 mmHg 67%
    10:00 +27°C° 0.5 mm 1 mps 669 mmHg 64%
    11:00 +28°C° 0.5 mm 2 mps 669 mmHg 61%
    12:00 +30°C° 0.5 mm 2 mps 669 mmHg 57%
    13:00 +30°C° 0.7 mm 3 mps 669 mmHg 57%
    14:00 +30°C° 0.7 mm 3 mps 668 mmHg 57%
    15:00 +30°C° 0.7 mm 4 mps 668 mmHg 57%
    16:00 +29°C° 0.3 mm 4 mps 668 mmHg 62%
    17:00 +27°C° 0.3 mm 4 mps 667 mmHg 67%
    18:00 +26°C° 0.3 mm 4 mps 667 mmHg 72%
    19:00 +25°C° 0.4 mm 3 mps 668 mmHg 78%
    20:00 +23°C° 0.4 mm 2 mps 668 mmHg 83%
    21:00 +22°C° 0.4 mm 1 mps 669 mmHg 89%
    22:00 +22°C° 0 mm 1 mps 669 mmHg 89%
    23:00 +22°C° 0 mm 1 mps 669 mmHg 89%

    23 Julio, Martes

    Tiempo Temperatura Precipitaciones Viento Presión Humedad
    00:00 +21°C° 0 mm 1 mps 669 mmHg 89%
    01:00 +21°C° 0 mm 1 mps 669 mmHg 88%
    02:00 +21°C° 0 mm 1 mps 668 mmHg 88%
    03:00 +20°C° 0 mm 1 mps 668 mmHg 88%
    04:00 +20°C° 0 mm 1 mps 668 mmHg 87%
    05:00 +20°C° 0 mm 1 mps 668 mmHg 86%
    06:00 +20°C° 0 mm 1 mps 668 mmHg 85%
    07:00 +22°C° 0 mm 1 mps 669 mmHg 77%
    08:00 +24°C° 0 mm 1 mps 669 mmHg 69%
    09:00 +25°C° 0 mm 1 mps 670 mmHg 61%
    10:00 +27°C° 0 mm 1 mps 670 mmHg 56%
    11:00 +28°C° 0 mm 1 mps 670 mmHg 50%
    12:00 +30°C° 0 mm 2 mps 670 mmHg 45%
    13:00 +30°C° 0 mm 2 mps 669 mmHg 45%
    14:00 +30°C° 0 mm 3 mps 668 mmHg 46%
    15:00 +30°C° 0 mm 4 mps 668 mmHg 46%
    16:00 +29°C° 0.2 mm 4 mps 668 mmHg 53%
    17:00 +28°C° 0.2 mm 3 mps 668 mmHg 60%
    18:00 +26°C° 0.2 mm 3 mps 667 mmHg 66%
    19:00 +25°C° 0.7 mm 3 mps 668 mmHg 74%
    20:00 +24°C° 0.7 mm 2 mps 668 mmHg 81%
    21:00 +22°C° 0.7 mm 1 mps 668 mmHg 89%
    22:00 +22°C° 0.2 mm 1 mps 668 mmHg 89%
    23:00 +21°C° 0.2 mm 1 mps 668 mmHg 90%
    Mostrar más